Weather History for KHNZ - October, 2013

Change the Weather History Date:

Tuesday, October 8, 2013

  Actual Average (KTDF) Record (KTDF)
Temperature  
Mean Temperature 59 °F -  
Max Temperature 62 °F 72 °F 91 °F (2007)
Min Temperature 56 °F 45 °F 29 °F (1964)
Degree Days  
Heating Degree Days 6    
Growing Degree Days 9 (Base 50)    
Moisture  
Dew Point 46 °F    
Average Humidity 62    
Maximum Humidity 81    
Minimum Humidity 54    
Precipitation  
Precipitation 0.00 in - - ()
Sea Level Pressure  
Sea Level Pressure 30.16 in    
Wind  
Wind Speed 10 mph (NNE)    
Max Wind Speed 16 mph    
Max Gust Speed 24 mph    
Visibility 10 miles    
Events      
Averages and records for this station are not official NWS values.
T = Trace of Precipitation, MM = Missing Value Source: NWS Daily Summary

Daily Weather History Graph

Daily Weather History Graph

Search for Another Location

Airport or City:

Trip Planner

Search our weather history database for the weather conditions in past years. The results will help you decide how hot, cold, wet, or windy it might be!

Date:

Astronomy

Oct. 08, 2013 Rise Set
Actual Time 7:15 AM EDT 6:47 PM EDT
Civil Twilight 6:49 AM EDT 7:12 PM EDT
Nautical Twilight 6:19 AM EDT 7:42 PM EDT
Astronomical Twilight 5:49 AM EDT 8:12 PM EDT
Moon 11:01 AM EDT (10/8) 9:28 PM EDT (10/8)
Length of Visible Light 12h 23m
Length of Day
11h 31m
Waxing Crescent, 16% of the Moon is Illuminated
Oct 8
Waxing Crescent
Oct 11
First Quarter
Oct 18
Full
Oct 26
Last Quarter
Nov 3
New

Hourly Weather History & Observations

Time (EDT) Temp. Dew Point Humidity Pressure Visibility Wind Dir Wind Speed Gust Speed Precip Events Conditions
12:15 AM 62.2 °F 54.7 °F 76% 30.02 in 10.0 mi North 6.9 mph - N/A   Overcast
12:35 AM 61.7 °F 54.9 °F 78% 30.02 in 10.0 mi NNW 5.8 mph - N/A   Overcast
12:55 AM 61.3 °F 55.6 °F 81% 30.02 in 10.0 mi North 9.2 mph - N/A   Overcast
1:15 AM 61.7 °F 55.4 °F 80% 30.03 in 10.0 mi North 8.1 mph - N/A   Overcast
1:35 AM 61.7 °F 53.4 °F 74% 30.03 in 10.0 mi North 9.2 mph 17.3 mph N/A   Overcast
1:55 AM 61.0 °F 51.6 °F 71% 30.04 in 10.0 mi NNE 15.0 mph 21.9 mph N/A   Overcast
2:15 AM 60.4 °F 49.5 °F 67% 30.05 in 10.0 mi NNE 13.8 mph 19.6 mph N/A   Overcast
2:35 AM 60.1 °F 48.6 °F 66% 30.06 in 10.0 mi NE 11.5 mph 19.6 mph N/A   Overcast
2:55 AM 59.9 °F 48.2 °F 65% 30.07 in 10.0 mi NNE 11.5 mph 17.3 mph N/A   Overcast
3:15 AM 59.4 °F 48.4 °F 67% 30.07 in 10.0 mi NE 10.4 mph - N/A   Overcast
3:35 AM 59.2 °F 48.2 °F 67% 30.08 in 10.0 mi NE 9.2 mph 16.1 mph N/A   Overcast
3:55 AM 58.8 °F 47.1 °F 65% 30.09 in 10.0 mi NNE 10.4 mph 17.3 mph N/A   Overcast
4:15 AM 58.5 °F 46.8 °F 65% 30.09 in 10.0 mi NNE 8.1 mph - N/A   Overcast
4:35 AM 58.5 °F 45.9 °F 63% 30.09 in 10.0 mi NNE 9.2 mph - N/A   Overcast
4:55 AM 58.3 °F 45.5 °F 62% 30.09 in 10.0 mi NNE 9.2 mph - N/A   Overcast
5:15 AM 58.1 °F 45.5 °F 63% 30.10 in 10.0 mi NNE 9.2 mph - N/A   Overcast
5:35 AM 58.1 °F 45.0 °F 62% 30.10 in 10.0 mi NNE 10.4 mph 17.3 mph N/A   Overcast
5:55 AM 58.1 °F 44.1 °F 60% 30.11 in 10.0 mi NNE 10.4 mph 19.6 mph N/A   Overcast
6:15 AM 58.1 °F 43.7 °F 59% 30.13 in 10.0 mi NNE 11.5 mph 18.4 mph N/A   Overcast
6:35 AM 57.7 °F 43.3 °F 59% 30.13 in 10.0 mi NNE 12.7 mph 23.0 mph N/A   Overcast
6:55 AM 57.6 °F 43.2 °F 59% 30.14 in 10.0 mi NNE 11.5 mph 17.3 mph N/A   Mostly Cloudy
7:15 AM 57.6 °F 42.8 °F 58% 30.14 in 10.0 mi NNE 12.7 mph 19.6 mph N/A   Scattered Clouds
7:35 AM 57.2 °F 42.4 °F 58% 30.16 in 10.0 mi NNE 10.4 mph 19.6 mph N/A   Mostly Cloudy
7:55 AM 57.2 °F 42.8 °F 59% 30.16 in 10.0 mi NNE 13.8 mph 18.4 mph N/A   Overcast
8:15 AM 56.5 °F 42.8 °F 60% 30.17 in 10.0 mi NNE 11.5 mph 17.3 mph N/A   Mostly Cloudy
8:35 AM 56.7 °F 43.0 °F 60% 30.18 in 10.0 mi NNE 10.4 mph 18.4 mph N/A   Clear
8:55 AM 56.8 °F 43.0 °F 60% 30.18 in 10.0 mi NNE 12.7 mph 17.3 mph N/A   Clear
9:15 AM 57.2 °F 43.2 °F 59% 30.19 in 10.0 mi NNE 11.5 mph 19.6 mph N/A   Clear
9:35 AM 57.7 °F 43.3 °F 59% 30.19 in 10.0 mi NNE 12.7 mph 21.9 mph N/A   Clear
9:55 AM 57.7 °F 43.3 °F 59% 30.20 in 10.0 mi NNE 16.1 mph 24.2 mph N/A   Clear
10:15 AM 58.1 °F 43.5 °F 58% 30.20 in 10.0 mi NNE 11.5 mph 19.6 mph N/A   Clear
10:35 AM 58.1 °F 43.7 °F 59% 30.20 in 10.0 mi NNE 12.7 mph 23.0 mph N/A   Clear
10:55 AM 58.5 °F 44.2 °F 59% 30.21 in 10.0 mi North 10.4 mph 20.7 mph N/A   Clear
11:15 AM 59.2 °F 44.8 °F 59% 30.21 in 10.0 mi North 11.5 mph - N/A   Scattered Clouds
11:35 AM 60.1 °F 45.0 °F 57% 30.21 in 10.0 mi NNE 10.4 mph 18.4 mph N/A   Clear
11:55 AM 60.4 °F 44.6 °F 56% 30.21 in 10.0 mi NNE 10.4 mph 21.9 mph N/A   Clear
12:15 PM 61.5 °F 44.8 °F 54% 30.20 in 10.0 mi NNE 11.5 mph 19.6 mph N/A   Scattered Clouds
12:35 PM 61.0 °F 45.0 °F 56% 30.20 in 10.0 mi NE 11.5 mph 20.7 mph N/A   Clear
12:55 PM 61.0 °F 45.9 °F 58% 30.19 in 10.0 mi NE 6.9 mph 18.4 mph N/A   Clear
1:15 PM 61.0 °F 45.0 °F 56% 30.20 in 10.0 mi NE 11.5 mph 19.6 mph N/A   Clear
1:35 PM 61.0 °F 45.3 °F 56% 30.20 in 10.0 mi NNE 11.5 mph 18.4 mph N/A   Scattered Clouds
1:55 PM 60.8 °F 45.7 °F 57% 30.19 in 10.0 mi NE 9.2 mph 18.4 mph N/A   Scattered Clouds
2:15 PM 60.4 °F 46.0 °F 59% 30.19 in 10.0 mi NNE 11.5 mph 17.3 mph N/A   Clear
2:35 PM 61.3 °F 46.8 °F 59% 30.18 in 10.0 mi NNE 9.2 mph - N/A   Clear
2:55 PM 61.0 °F 46.4 °F 59% 30.18 in 10.0 mi NNE 9.2 mph - N/A   Clear
3:15 PM 60.8 °F 45.9 °F 58% 30.18 in 10.0 mi NNE 10.4 mph 16.1 mph N/A   Clear
3:35 PM 60.8 °F 45.5 °F 57% 30.18 in 10.0 mi NE 11.5 mph 19.6 mph N/A   Clear
3:55 PM 61.2 °F 45.3 °F 56% 30.19 in 10.0 mi NNE 11.5 mph 16.1 mph N/A   Mostly Cloudy
4:15 PM 60.8 °F 45.5 °F 57% 30.19 in 10.0 mi North 6.9 mph - N/A   Overcast
4:35 PM 60.4 °F 44.8 °F 56% 30.19 in 10.0 mi NNE 9.2 mph - N/A   Overcast
4:55 PM 60.1 °F 45.3 °F 58% 30.19 in 10.0 mi NNE 8.1 mph - N/A   Overcast
5:15 PM 59.9 °F 45.7 °F 59% 30.20 in 10.0 mi NNE 6.9 mph - N/A   Overcast
5:35 PM 59.4 °F 46.4 °F 62% 30.20 in 10.0 mi North 5.8 mph - N/A   Overcast
5:55 PM 59.2 °F 46.2 °F 62% 30.19 in 10.0 mi NNE 8.1 mph - N/A   Overcast
6:15 PM 59.0 °F 45.7 °F 61% 30.20 in 10.0 mi NNE 9.2 mph - N/A   Overcast
6:35 PM 59.0 °F 45.9 °F 62% 30.21 in 10.0 mi NNE 6.9 mph - N/A   Overcast
6:55 PM 59.0 °F 45.3 °F 60% 30.21 in 10.0 mi NNE 8.1 mph - N/A   Overcast
7:15 PM 58.6 °F 45.3 °F 61% 30.21 in 10.0 mi NNE 5.8 mph - N/A   Overcast
7:35 PM 58.5 °F 45.1 °F 61% 30.22 in 10.0 mi NNE 8.1 mph - N/A   Overcast
7:55 PM 58.5 °F 45.5 °F 62% 30.22 in 10.0 mi NNE 6.9 mph - N/A   Overcast
8:15 PM 58.5 °F 45.5 °F 62% 30.22 in 10.0 mi NNE 9.2 mph 17.3 mph N/A   Overcast
8:35 PM 58.3 °F 45.5 °F 62% 30.21 in 10.0 mi NNE 9.2 mph 17.3 mph N/A   Overcast
8:55 PM 58.1 °F 45.7 °F 63% 30.21 in 10.0 mi NNE 10.4 mph 16.1 mph N/A   Overcast
9:15 PM 57.7 °F 45.7 °F 64% 30.22 in 10.0 mi NNE 5.8 mph 17.3 mph N/A   Overcast
9:35 PM 57.6 °F 46.2 °F 66% 30.22 in 10.0 mi NNE 8.1 mph - N/A   Scattered Clouds
9:55 PM 57.4 °F 46.6 °F 67% 30.23 in 10.0 mi North 6.9 mph - N/A   Mostly Cloudy
10:15 PM 57.4 °F 46.6 °F 67% 30.22 in 10.0 mi NNE 5.8 mph - N/A   Overcast
10:35 PM 57.6 °F 46.4 °F 66% 30.22 in 10.0 mi NNE 6.9 mph - N/A   Overcast
10:55 PM 57.4 °F 46.4 °F 67% 30.22 in 10.0 mi NNE 6.9 mph - N/A   Overcast
11:15 PM 57.4 °F 46.6 °F 67% 30.23 in 10.0 mi NNE 8.1 mph - N/A   Overcast
11:35 PM 57.4 °F 46.8 °F 68% 30.22 in 10.0 mi NNE 5.8 mph - N/A   Overcast
11:55 PM 57.4 °F 46.8 °F 68% 30.22 in 10.0 mi NNE 6.9 mph - N/A   Overcast